H1 CPF 2 NER 2023 12 14 9 348 01 glonass106 H2 0705201 9106 32275 2023 12 14 0 0 0 2023 12 17 23 45 0 900 1 1 0 0 0 1 H9 10 0 60292 0.00000 0 7522922.349 -13981450.629 19973724.671 10 0 60292 900.00000 0 7765163.754 -11432516.719 21448204.777 10 0 60292 1800.00000 0 8233290.211 -8757324.248 22506495.730 10 0 60292 2700.00000 0 8932187.769 -6026359.729 23128072.083 10 0 60292 3600.00000 0 9853939.995 -3310748.608 23300870.842 10 0 60292 4500.00000 0 10978042.519 -679514.859 23021524.321 10 0 60292 5400.00000 0 12272161.446 1803063.659 22295426.263 10 0 60292 6300.00000 0 13693404.704 4079895.314 21136629.932 10 0 60292 7200.00000 0 15190054.006 6103209.884 19567579.858 10 0 60292 8100.00000 0 16703685.829 7836301.076 17618681.936 10 0 60292 9000.00000 0 18171593.462 9254804.758 15327719.532 10 0 60292 9900.00000 0 19529409.267 10347460.437 12739126.195 10 0 60292 10800.00000 0 20713817.670 11116324.950 9903128.383 10 0 60292 11700.00000 0 21665245.165 11576430.159 6874774.199 10 0 60292 12600.00000 0 22330414.196 11754899.639 3712866.634 10 0 60292 13500.00000 0 22664653.136 11689562.181 478821.869 10 0 60292 14400.00000 0 22633864.535 11427121.116 -2764525.145 10 0 60292 15300.00000 0 22216067.970 11020957.376 -5954144.274 10 0 60292 16200.00000 0 21402451.620 10528659.717 -9028038.698 10 0 60292 17100.00000 0 20197887.352 10009387.222 -11926453.933 10 0 60292 18000.00000 0 18620886.701 9521176.259 -14593043.255 10 0 60292 18900.00000 0 16702998.751 9118306.477 -16975966.411 10 0 60292 19800.00000 0 14487674.392 8848837.786 -19028899.919 10 0 60292 20700.00000 0 12028643.918 8752422.999 -20711939.118 10 0 60292 21600.00000 0 9387875.297 8858488.963 -21992374.419 10 0 60292 22500.00000 0 6633197.912 9184863.405 -22845326.851 10 0 60292 23400.00000 0 3835690.514 9736905.777 -23254230.732 10 0 60292 24300.00000 0 1066941.769 10507179.077 -23211154.398 10 0 60292 25200.00000 0 -1603703.034 11475676.876 -22716952.996 10 0 60292 26100.00000 0 -4111795.066 12610596.347 -21781250.542 10 0 60292 27000.00000 0 -6400225.105 13869625.172 -20422251.716 10 0 60292 27900.00000 0 -8421355.867 15201688.569 -18666386.971 10 0 60292 28800.00000 0 -10138755.573 16549083.290 -16547797.807 10 0 60292 29700.00000 0 -11528461.532 17849909.087 -14107672.055 10 0 60292 30600.00000 0 -12579722.176 19040695.508 -11393441.940 10 0 60292 31500.00000 0 -13295187.755 20059113.509 -8457860.489 10 0 60292 32400.00000 0 -13690543.119 20846657.669 -5357974.255 10 0 60292 33300.00000 0 -13793599.379 21351185.901 -2154012.459 10 0 60292 34200.00000 0 -13642884.027 21529209.433 1091785.516 10 0 60292 35100.00000 0 -13285790.205 21347836.368 4316381.183 10 0 60292 36000.00000 0 -12776364.278 20786286.675 7457162.631 10 0 60292 36900.00000 0 -12172826.059 19836914.545 10453160.664 10 0 60292 37800.00000 0 -11534927.080 18505694.862 13246231.531 10 0 60292 38700.00000 0 -10921258.928 16812152.987 15782183.257 10 0 60292 39600.00000 0 -10386625.476 14788740.461 18011823.812 10 0 60292 40500.00000 0 -9979589.918 12479682.323 19891911.120 10 0 60292 41400.00000 0 -9740299.849 9939343.643 21385987.034 10 0 60292 42300.00000 0 -9698681.835 7230182.802 22465079.662 10 0 60292 43200.00000 0 -9873081.231 4420375.972 23108261.136 10 0 60292 44100.00000 0 -10269404.341 1581210.663 23303050.583 10 0 60292 45000.00000 0 -10880799.050 -1215644.289 23045654.942 10 0 60292 45900.00000 0 -11687887.564 -3900880.057 22341043.202 10 0 60292 46800.00000 0 -12659541.968 -6410187.738 21202852.606 10 0 60292 47700.00000 0 -13754170.701 -8686688.294 19653128.365 10 0 60292 48600.00000 0 -14921462.674 -10683052.536 17721901.444 10 0 60292 49500.00000 0 -16104516.593 -12363223.918 15446611.920 10 0 60292 50400.00000 0 -17242266.732 -13703673.139 12871388.389 10 0 60292 51300.00000 0 -18272103.705 -14694132.949 10046196.659 10 0 60292 52200.00000 0 -19132580.316 -15337783.080 7025873.644 10 0 60292 53100.00000 0 -19766088.558 -15650878.140 3869064.825 10 0 60292 54000.00000 0 -20121394.731 -15661834.697 637085.711 10 0 60292 54900.00000 0 -20155925.258 -15409816.499 -2607270.516 10 0 60292 55800.00000 0 -19837706.042 -14942878.077 -5800955.675 10 0 60292 56700.00000 0 -19146872.643 -14315745.634 -8881895.368 10 0 60292 57600.00000 0 -18076686.564 -13587329.555 -11790199.444 10 0 60292 58500.00000 0 -16634013.744 -12818074.250 -14469330.008 10 0 60292 59400.00000 0 -14839244.074 -12067257.906 -16867203.817 10 0 60292 60300.00000 0 -12725654.241 -11390356.694 -18937207.266 10 0 60292 61200.00000 0 -10338239.784 -10836585.248 -20639104.048 10 0 60292 62100.00000 0 -7732064.364 -10446717.482 -21939817.861 10 0 60292 63000.00000 0 -4970194.570 -10251279.928 -22814075.076 10 0 60292 63900.00000 0 -2121305.762 -10269193.875 -23244895.130 10 0 60292 64800.00000 0 742941.832 -10506923.595 -23223919.376 10 0 60292 65700.00000 0 3550648.147 -10958166.568 -22751572.272 10 0 60292 66600.00000 0 6232425.778 -11604098.772 -21837051.924 10 0 60292 67500.00000 0 8724046.087 -12414164.791 -20498150.258 10 0 60292 68400.00000 0 10968869.503 -13347379.513 -18760906.273 10 0 60292 69300.00000 0 12919959.607 -14354086.707 -16659098.996 10 0 60292 70200.00000 0 14541793.755 -15378100.434 -14233589.872 10 0 60292 71100.00000 0 15811499.864 -16359139.094 -11531527.197 10 0 60292 72000.00000 0 16719568.746 -17235449.428 -8605428.043 10 0 60292 72900.00000 0 17270013.382 -17946509.685 -5512155.518 10 0 60292 73800.00000 0 17479969.732 -18435697.722 -2311811.431 10 0 60292 74700.00000 0 17378757.145 -18652811.176 933433.840 10 0 60292 75600.00000 0 17006439.175 -18556333.044 4160551.164 10 0 60292 76500.00000 0 16411946.591 -18115346.779 7306878.274 10 0 60292 77400.00000 0 15650842.708 -17311019.752 10311337.002 10 0 60292 78300.00000 0 14782826.113 -16137592.221 13115618.242 10 0 60292 79200.00000 0 13869076.630 -14602829.745 15665311.599 10 0 60292 80100.00000 0 12969556.758 -12727919.535 17910957.861 10 0 60292 81000.00000 0 12140382.332 -10546814.499 19809004.244 10 0 60292 81900.00000 0 11431372.965 -8105051.722 21322644.382 10 0 60292 82800.00000 0 10883885.014 -5458093.938 22422527.373 10 0 60292 83700.00000 0 10529017.788 -2669262.211 23087322.814 10 0 60292 84600.00000 0 10386267.929 192655.193 23304131.473 10 0 60292 85500.00000 0 10462688.183 3056019.394 23068734.102 10 0 60293 0.00000 0 10752585.623 5849075.198 22385673.901 10 0 60293 900.00000 0 11237772.242 8502692.222 21268170.593 10 0 60293 1800.00000 0 11888357.124 10952996.400 19737868.518 10 0 60293 2700.00000 0 12664047.851 13143788.517 17824421.941 10 0 60293 3600.00000 0 13515906.586 15028646.385 15564925.738 10 0 60293 4500.00000 0 14388487.604 16572625.359 13003201.514 10 0 60293 5400.00000 0 15222266.742 17753486.668 10188952.289 10 0 60293 6300.00000 0 15956260.715 18562402.804 7176801.566 10 0 60293 7200.00000 0 16530725.940 19004110.874 4025235.010 10 0 60293 8100.00000 0 16889822.816 19096507.964 795465.114 10 0 60293 9000.00000 0 16984132.550 18869705.958 -2449759.051 10 0 60293 9900.00000 0 16772919.554 18364586.051 -5647373.565 10 0 60293 10800.00000 0 16226042.971 17630914.421 -8735228.653 10 0 60293 11700.00000 0 15325435.602 16725099.007 -11653300.554 10 0 60293 12600.00000 0 14066086.679 15707682.643 -14344862.088 10 0 60293 13500.00000 0 12456485.902 14640678.833 -16757588.711 10 0 60293 14400.00000 0 10518508.847 13584863.042 -18844578.207 10 0 60293 15300.00000 0 8286747.441 12597134.138 -20565263.978 10 0 60293 16200.00000 0 5807312.496 11728057.419 -21886204.201 10 0 60293 17100.00000 0 3136157.439 11019692.869 -22781731.639 10 0 60293 18000.00000 0 336992.402 10503800.025 -23234451.704 10 0 60293 18900.00000 0 -2521125.121 10200494.874 -23235579.398 10 0 60293 19800.00000 0 -5366423.416 10117415.025 -22785108.803 10 0 60293 20700.00000 0 -8127164.504 10249428.009 -21891812.036 10 0 60293 21600.00000 0 -10734393.240 10578894.653 -20573067.756 10 0 60293 22500.00000 0 -13124573.805 11076476.170 -18854522.515 10 0 60293 23400.00000 0 -15242004.463 11702450.678 -16769591.435 10 0 60293 24300.00000 0 -17040910.684 12408483.443 -14358807.752 10 0 60293 25200.00000 0 -18487130.113 13139775.972 -11669033.709 10 0 60293 26100.00000 0 -19559319.824 13837503.010 -8752548.073 10 0 60293 27000.00000 0 -20249636.346 14441434.289 -5666028.038 10 0 60293 27900.00000 0 -20563861.001 14892629.991 -2469445.445 10 0 60293 28800.00000 0 -20520966.407 15136095.669 775100.915 10 0 60293 29700.00000 0 -20152143.525 15123284.084 4004593.863 10 0 60293 30600.00000 0 -19499331.285 14814337.859 7156323.376 10 0 60293 31500.00000 0 -18613311.718 14179977.833 10169104.908 10 0 60293 32400.00000 0 -17551451.682 13202957.011 12984466.566 10 0 60293 33300.00000 0 -16375186.931 11879018.360 15547782.033 10 0 60293 34200.00000 0 -15147354.859 10217315.574 17809327.303 10 0 60293 35100.00000 0 -13929488.272 8240278.521 19725241.085 10 0 60293 36000.00000 0 -12779183.848 5982928.188 21258370.750 10 0 60293 36900.00000 0 -11747655.475 3491668.909 22378988.026 10 0 60293 37800.00000 0 -10877574.689 822607.266 23065361.243 10 0 60293 38700.00000 0 -10201288.166 -1960533.462 23304173.675 10 0 60293 39600.00000 0 -9739486.445 -4788817.672 23090780.304 10 0 60293 40500.00000 0 -9500379.121 -7590721.976 22429298.338 10 0 60293 41400.00000 0 -9479410.711 -10294872.094 21332529.716 10 0 60293 42300.00000 0 -9659528.878 -12832779.543 19821716.853 10 0 60293 43200.00000 0 -10011993.698 -15141465.453 17926135.904 10 0 60293 44100.00000 0 -10497694.068 -17165863.299 15682534.729 10 0 60293 45000.00000 0 -11068916.120 -18860901.185 13134425.778 10 0 60293 45900.00000 0 -11671489.389 -20193177.450 10331246.848 10 0 60293 46800.00000 0 -12247220.463 -21142160.009 7327405.387 10 0 60293 47700.00000 0 -12736511.479 -21700859.572 4181224.464 10 0 60293 48600.00000 0 -13081052.707 -21875948.780 953810.706 10 0 60293 49500.00000 0 -13226475.098 -21687322.540 -2292133.836 10 0 60293 50400.00000 0 -13124850.011 -21167118.298 -5493532.410 10 0 60293 51300.00000 0 -12736929.644 -20358237.866 -8588162.782 10 0 60293 52200.00000 0 -12034032.464 -19312433.440 -11515870.476 10 0 60293 53100.00000 0 -10999492.877 -18088038.912 -14219741.858 10 0 60293 54000.00000 0 -9629612.767 -16747442.535 -16647213.799 10 0 60293 54900.00000 0 -7934073.547 -15354407.814 -18751097.978 10 0 60293 55800.00000 0 -5935790.171 -13971355.797 -20490499.722 10 0 60293 56700.00000 0 -3670212.010 -12656723.339 -21831613.512 10 0 60293 57600.00000 0 -1184098.742 -11462508.486 -22748379.853 10 0 60293 58500.00000 0 1466178.573 -10432106.056 -23222990.978 10 0 60293 59400.00000 0 4216741.280 -9598524.048 -23246235.832 10 0 60293 60300.00000 0 6998624.915 -8983055.391 -22817677.906 10 0 60293 61200.00000 0 9740418.836 -8594460.272 -21945662.622 10 0 60293 62100.00000 0 12371014.492 -8428692.802 -20647154.215 10 0 60293 63000.00000 0 14822348.553 -8469182.888 -18947405.230 10 0 60293 63900.00000 0 17032027.174 -8687660.822 -16879464.922 10 0 60293 64800.00000 0 18945722.611 -9045489.266 -14483535.978 10 0 60293 65700.00000 0 20519242.798 -9495445.921 -11806191.873 10 0 60293 66600.00000 0 21720188.012 -9983881.150 -8899470.018 10 0 60293 67500.00000 0 22529126.080 -10453158.914 -5819858.355 10 0 60293 68400.00000 0 22940237.663 -10844277.397 -2627195.214 10 0 60293 69300.00000 0 22961405.444 -11099558.034 616495.835 10 0 60293 70200.00000 0 22613744.410 -11165288.738 3848213.161 10 0 60293 71100.00000 0 21930593.926 -10994209.110 7005202.416 10 0 60293 72000.00000 0 20956014.938 -10547732.116 10026175.818 10 0 60293 72900.00000 0 19742856.313 -9797807.906 12852501.464 10 0 60293 73800.00000 0 18350472.339 -8728350.677 15429339.449 10 0 60293 74700.00000 0 16842187.771 -7336167.883 17706702.852 10 0 60293 75600.00000 0 15282617.144 -5631352.070 19640423.286 10 0 60293 76500.00000 0 13734950.780 -3637118.115 21193002.821 10 0 60293 77400.00000 0 12258321.035 -1389091.780 22334336.335 10 0 60293 78300.00000 0 10905358.583 1065921.730 23042291.007 10 0 60293 79200.00000 0 9720040.375 3671639.011 23303132.311 10 0 60293 80100.00000 0 8735918.599 6364399.860 23111788.767 10 0 60293 81000.00000 0 7974803.927 9075582.710 22471950.601 10 0 60293 81900.00000 0 7445957.469 11734234.947 21396000.421 10 0 60293 82800.00000 0 7145824.671 14269809.959 19904777.025 10 0 60293 83700.00000 0 7058321.833 16614898.192 18027176.444 10 0 60293 84600.00000 0 7155662.983 18707839.499 15799597.292 10 0 60293 85500.00000 0 7399692.161 20495108.635 13265240.451 10 0 60294 0.00000 0 7743665.003 21933374.811 10473276.201 10 0 60294 900.00000 0 8134404.672 22991150.315 7477892.772 10 0 60294 1800.00000 0 8514740.626 23649957.497 4337248.162 10 0 60294 2700.00000 0 8826127.628 23904967.901 1112340.389 10 0 60294 3600.00000 0 9011333.440 23765084.745 -2134178.192 10 0 60294 4500.00000 0 9017081.163 23252466.169 -5339220.586 10 0 60294 5400.00000 0 8796533.622 22401509.302 -8440494.502 10 0 60294 6300.00000 0 8311513.819 21257338.056 -11377716.928 10 0 60294 7200.00000 0 7534366.490 19873858.588 -14093789.700 10 0 60294 8100.00000 0 6449380.991 18311464.559 -16535912.766 10 0 60294 9000.00000 0 5053714.251 16634489.058 -18656613.121 10 0 60294 9900.00000 0 3357773.649 14908510.583 -20414669.217 10 0 60294 10800.00000 0 1385042.480 13197626.483 -21775912.845 10 0 60294 11700.00000 0 -828645.893 11561808.306 -22713893.081 10 0 60294 12600.00000 0 -3236355.959 10054449.938 -23210389.597 10 0 60294 13500.00000 0 -5781768.915 8720210.964 -23255765.655 10 0 60294 14400.00000 0 -8401301.684 7593245.179 -22849154.211 10 0 60294 15300.00000 0 -11026538.522 6695887.821 -21998473.664 10 0 60294 16200.00000 0 -13586874.628 6037855.805 -20720273.067 10 0 60294 17100.00000 0 -16012262.223 5615993.609 -19039409.725 10 0 60294 18000.00000 0 -18235945.143 5414574.602 -16988565.375 10 0 60294 18900.00000 0 -20197068.401 5406144.204 -14607610.119 10 0 60294 19800.00000 0 -21843054.198 5552868.512 -11942826.349 10 0 60294 20700.00000 0 -23131645.526 5808330.703 -9046007.610 10 0 60294 21600.00000 0 -24032532.281 6119698.597 -5973449.969 10 0 60294 22500.00000 0 -24528492.330 6430171.097 -2784855.595 10 0 60294 23400.00000 0 -24616000.215 6681599.382 457829.833 10 0 60294 24300.00000 0 -24305278.635 6817171.357 3691622.876 10 0 60294 25200.00000 0 -23619791.270 6784045.228 6853727.482 10 0 60294 26100.00000 0 -22595199.006 6535820.270 9882755.228 10 0 60294 27000.00000 0 -21277824.127 6034739.862 12719916.723 10 0 60294 27900.00000 0 -19722687.615 5253533.286 15310160.911 10 0 60294 28800.00000 0 -17991202.416 4176818.067 17603240.221 10 0 60294 29700.00000 0 -16148619.667 2802003.249 19554681.211 10 0 60294 30600.00000 0 -14261334.921 1139654.945 21126642.390 10 0 60294 31500.00000 0 -12394166.861 -786692.007 22288643.172 10 0 60294 32400.00000 0 -10607721.841 -2941269.366 23018150.548 10 0 60294 33300.00000 0 -8955953.653 -5277328.216 23301012.736 10 0 60294 34200.00000 0 -7484019.635 -7738858.048 23131731.901 10 0 60294 35100.00000 0 -6226521.707 -10262701.874 22513570.958 10 0 60294 36000.00000 0 -5206204.878 -12780980.661 21458492.449 10 0 60294 36900.00000 0 -4433166.769 -15223727.363 19986930.427 10 0 60294 37800.00000 0 -3904610.453 -17521622.098 18127399.309 10 0 60294 38700.00000 0 -3605150.363 -19608715.453 15915946.637 10 0 60294 39600.00000 0 -3507657.941 -21425027.126 13395459.619 10 0 60294 40500.00000 0 -3574611.139 -22918911.924 10614838.161 10 0 60294 41400.00000 0 -3759890.683 -24049094.485 7628049.780 10 0 60294 42300.00000 0 -4010947.073 -24786287.610 4493084.330 10 0 60294 43200.00000 0 -4271246.537 -25114326.293 1270828.573 10 0 60294 44100.00000 0 -4482892.114 -25030769.663 -1976117.494 10 0 60294 45000.00000 0 -4589308.469 -24546945.377 -5184659.279 10 0 60294 45900.00000 0 -4537876.087 -23687434.439 -8292437.071 10 0 60294 46800.00000 0 -4282402.557 -22489018.034 -11239041.929 10 0 60294 47700.00000 0 -3785325.406 -20999130.696 -13967193.721 10 0 60294 48600.00000 0 -3019552.291 -19273884.966 -16423857.939 10 0 60294 49500.00000 0 -1969859.714 -17375750.696 -18561279.206 10 0 60294 50400.00000 0 -633790.083 -15370986.620 -20337911.175 10 0 60294 51300.00000 0 977991.835 -13326932.061 -21719224.718 10 0 60294 52200.00000 0 2841899.250 -11309272.288 -22678378.877 10 0 60294 53100.00000 0 4922173.216 -9379391.912 -23196741.734 10 0 60294 54000.00000 0 7172151.715 -7591926.756 -23264251.405 10 0 60294 54900.00000 0 9536005.920 -5992616.090 -22879610.413 10 0 60294 55800.00000 0 11950871.979 -4616544.375 -22050309.824 10 0 60294 56700.00000 0 14349290.133 -3486845.226 -20792482.791 10 0 60294 57600.00000 0 16661850.039 -2613920.837 -19130590.286 10 0 60294 58500.00000 0 18819932.410 -1995208.525 -17096945.019 10 0 60294 59400.00000 0 20758432.911 -1615503.041 -14731082.609 10 0 60294 60300.00000 0 22418354.832 -1447819.968 -12078992.031 10 0 60294 61200.00000 0 23749162.348 -1454762.734 -9192220.235 10 0 60294 62100.00000 0 24710796.093 -1590334.592 -6126868.319 10 0 60294 63000.00000 0 25275266.854 -1802118.058 -2942498.897 10 0 60294 63900.00000 0 25427760.834 -2033728.853 299023.782 10 0 60294 64800.00000 0 25167210.466 -2227439.735 3534738.076 10 0 60294 65700.00000 0 24506307.282 -2326862.561 6701809.728 10 0 60294 66600.00000 0 23470956.771 -2279574.452 9738752.955 10 0 60294 67500.00000 0 22099198.642 -2039576.517 12586623.851 10 0 60294 68400.00000 0 20439638.291 -1569480.734 15190162.805 10 0 60294 69300.00000 0 18549455.604 -842332.246 17498863.787 10 0 60294 70200.00000 0 16492074.752 157010.218 19467950.082 10 0 60294 71100.00000 0 14334592.491 1430994.438 21059238.005 10 0 60294 72000.00000 0 12145072.247 2969032.949 22241872.478 10 0 60294 72900.00000 0 9989816.500 4747714.567 22992920.886 10 0 60294 73800.00000 0 7930730.578 6731561.371 23297814.370 10 0 60294 74700.00000 0 6022886.906 8874300.577 23150628.493 10 0 60294 75600.00000 0 4312390.259 11120599.485 22554198.199 10 0 60294 76500.00000 0 2834631.959 13408192.428 21520064.866 10 0 60294 77400.00000 0 1613004.832 15670312.308 20068256.282 10 0 60294 78300.00000 0 658131.603 17838326.508 18226903.357 10 0 60294 79200.00000 0 -32361.854 19844468.286 16031700.336 10 0 60294 80100.00000 0 -473519.639 21624550.350 13525218.258 10 0 60294 81000.00000 0 -692189.646 23120547.786 10756084.203 10 0 60294 81900.00000 0 -725655.006 24282942.523 7778041.617 10 0 60294 82800.00000 0 -619821.213 25072731.085 4648909.480 10 0 60294 83700.00000 0 -427035.891 25463011.244 1429460.307 10 0 60294 84600.00000 0 -203633.750 25440080.606 -1817761.236 10 0 60294 85500.00000 0 -7311.138 25004000.528 -5029655.832 10 0 60295 0.00000 0 105558.066 24168601.366 -8143798.783 10 0 60295 900.00000 0 82550.859 22960927.935 -11099658.252 10 0 60295 1800.00000 0 -122344.404 21420149.450 -13839774.047 10 0 60295 2700.00000 0 -546540.265 19595978.111 -16310879.101 10 0 60295 3600.00000 0 -1217028.804 17546663.674 -18464937.277 10 0 60295 4500.00000 0 -2149004.502 15336647.773 -20260078.770 10 0 60295 5400.00000 0 -3344990.469 13033976.311 -21661414.635 10 0 60295 6300.00000 0 -4794505.852 10707578.182 -22641714.748 10 0 60295 7200.00000 0 -6474289.475 8424523.957 -23181936.233 10 0 60295 8100.00000 0 -8349071.315 6247378.751 -23271592.427 10 0 60295 9000.00000 0 -10372860.486 4231759.320 -22908955.456 10 0 60295 9900.00000 0 -12490696.681 2424196.722 -22101088.702 10 0 60295 10800.00000 0 -14640792.622 860392.922 -20863708.636 10 0 60295 11700.00000 0 -16756978.624 -436056.833 -19220878.655 10 0 60295 12600.00000 0 -18771347.590 -1454423.566 -17204540.765 10 0 60295 13500.00000 0 -20616990.248 -2197055.480 -14853894.017 10 0 60295 14400.00000 0 -22230706.433 -2679032.676 -12214631.579 10 0 60295 15300.00000 0 -23555579.060 -2927281.467 -9338051.173 10 0 60295 16200.00000 0 -24543302.973 -2979186.819 -6280056.150 10 0 60295 17100.00000 0 -25156171.097 -2880762.639 -3100066.715 10 0 60295 18000.00000 0 -25368634.522 -2684458.201 140137.219 10 0 60295 18900.00000 0 -25168371.165 -2446694.459 3377618.698 10 0 60295 19800.00000 0 -24556818.244 -2225235.232 6549508.135 10 0 60295 20700.00000 0 -23549146.448 -2076505.215 9594225.208 10 0 60295 21600.00000 0 -22173677.141 -2052968.817 12452674.226 10 0 60295 22500.00000 0 -20470767.312 -2200681.110 15069389.589 10 0 60295 23400.00000 0 -18491209.248 -2557114.690 17393609.167 10 0 60295 24300.00000 0 -16294212.017 -3149354.482 19380255.025 10 0 60295 25200.00000 0 -13945049.093 -3992736.894 20990802.983 10 0 60295 26100.00000 0 -11512470.126 -5089990.987 22194024.746 10 0 60295 27000.00000 0 -9065984.312 -6430918.316 22966588.918 10 0 60295 27900.00000 0 -6673127.838 -7992625.606 23293509.918 10 0 60295 28800.00000 0 -4396828.333 -9740301.406 23168436.630 10 0 60295 29700.00000 0 -2292974.970 -11628505.334 22593775.514 10 0 60295 30600.00000 0 -408294.253 -13602917.212 21580645.887 10 0 60295 31500.00000 0 1221381.135 -15602474.211 20148668.029 10 0 60295 32400.00000 0 2572379.364 -17561807.935 18325587.764 10 0 60295 33300.00000 0 3633940.465 -19413880.645 16146744.160 10 0 60295 34200.00000 0 4408420.787 -21092711.226 13654389.924 10 0 60295 35100.00000 0 4910943.124 -22536077.413 10896876.913 10 0 60295 36000.00000 0 5168507.837 -23688081.344 7927721.905 10 0 60295 36900.00000 0 5218602.959 -24501470.868 4804570.283 10 0 60295 37800.00000 0 5107372.385 -24939618.867 1588077.519 10 0 60295 38700.00000 0 4887420.014 -24978076.987 -1659269.846 10 0 60295 39600.00000 0 4615343.208 -24605637.833 -4874370.527 10 0 60295 40500.00000 0 4349100.563 -23824860.315 -7994738.058 10 0 60295 41400.00000 0 4145326.068 -22652035.404 -10959719.161 10 0 60295 42300.00000 0 4056704.134 -21116593.188 -13711676.609 10 0 60295 43200.00000 0 4129517.338 -19259975.683 -16197113.078 10 0 60295 44100.00000 0 4401471.466 -17134022.365 -18367713.773 10 0 60295 45000.00000 0 4899890.556 -14798935.890 -20181287.279 10 0 60295 45900.00000 0 5640359.001 -12320912.978 -21602586.374 10 0 60295 46800.00000 0 6625868.753 -9769539.332 -22603992.947 10 0 60295 47700.00000 0 7846508.391 -7215057.213 -23166053.960 10 0 60295 48600.00000 0 9279707.940 -4725619.326 -23277858.369 10 0 60295 49500.00000 0 10891029.977 -2364643.060 -22937247.914 10 0 60295 50400.00000 0 12635474.613 -188374.763 -22150857.946 10 0 60295 51300.00000 0 14459244.368 1756235.210 -20933987.558 10 0 60295 52200.00000 0 16301895.640 3433259.017 -19310301.544 10 0 60295 53100.00000 0 18098787.125 4819048.409 -17311369.832 10 0 60295 54000.00000 0 19783723.004 5902971.061 -14976053.186 10 0 60295 54900.00000 0 21291680.331 6687596.638 -12349746.873 10 0 60295 55800.00000 0 22561506.340 7188326.133 -9483496.935 10 0 60295 56700.00000 0 23538472.463 7432481.427 -6433006.183 10 0 60295 57600.00000 0 24176577.732 7457894.736 -3257549.349 10 0 60295 58500.00000 0 24440504.651 7311058.665 -18818.763 10 0 60295 59400.00000 0 24307145.214 7044916.105 3220276.619 10 0 60295 60300.00000 0 23766632.860 6716384.387 6396835.145 10 0 60295 61200.00000 0 22822836.927 6383719.187 9449185.053 10 0 60295 62100.00000 0 21493298.865 6103830.311 12318081.722 10 0 60295 63000.00000 0 19808612.882 5929663.310 14947856.137 10 0 60295 63900.00000 0 17811276.999 5907757.889 17287492.305 10 0 60295 64800.00000 0 15554062.535 6076086.369 19291612.984 10 0 60295 65700.00000 0 13097969.976 6462263.507 20921355.093 10 0 60295 66600.00000 0 10509856.214 7082203.226 22145118.382 10 0 60295 67500.00000 0 7859831.527 7939278.998 22939173.605 10 0 60295 68400.00000 0 5218533.908 9024023.547 23288119.038 10 0 60295 69300.00000 0 2654393.263 10314381.041 23185177.061 10 0 60295 70200.00000 0 230998.152 11776501.988 22632325.406 10 0 60295 71100.00000 0 -1995326.590 13366048.481 21640260.633 10 0 60295 72000.00000 0 -3977631.737 15029956.212 20228194.335 10 0 60295 72900.00000 0 -5680058.298 16708580.572 18423485.635 10 0 60295 73800.00000 0 -7079084.502 18338138.043 16261116.395 10 0 60295 74700.00000 0 -8164253.997 19853341.456 13783018.626 10 0 60295 75600.00000 0 -8938355.681 21190119.295 11037266.335 10 0 60295 76500.00000 0 -9417048.352 22288305.327 8077146.813 10 0 60295 77400.00000 0 -9627946.584 23094185.619 4960128.915 10 0 60295 78300.00000 0 -9609206.903 23562795.647 1746748.078 10 0 60295 79200.00000 0 -9407674.448 23659870.374 -1500570.278 10 0 60295 80100.00000 0 -9076668.935 23363364.484 -4718725.840 10 0 60295 81000.00000 0 -8673504.163 22664478.016 -7845172.932 10 0 60295 81900.00000 0 -8256846.605 21568143.332 -10819140.049 10 0 60295 82800.00000 0 -7884025.564 20092952.145 -13582815.072 10 0 60295 83700.00000 0 -7608409.383 18270524.919 -16082472.577 10 0 60295 84600.00000 0 -7476959.376 16144348.463 -18269520.979 10 0 60295 85500.00000 0 -7528065.532 13768129.953 -20101448.844 99